Wind_Speed
22 22 22 22 21 22 22 22 23 22 21 19 19 20 20 20 21 21 21 21 21 20 20 20 20 21 22 22 22 23 23 23 24 24 24 24 24 24 24 24 23 23 23 23
24 24 24 24 23 23 23 23 24 24 22 20 21 21 21 22 22 22 22 21 22 22 21 21 21 22 22 23 23 23 24 24 24 25 25 25 26 25 25 25 25 25 24 25
26 25 26 25 23 23 24 24 24 24 23 23 23 23 23 23 23 23 23 22 22 23 23 22 22 22 23 24 24 25 25 26 26 26 27 27 27 27 26 27 27 27 27 27
26 26 27 25 24 24 24 24 24 24 24 25 26 26 25 25 24 24 24 24 24 24 24 24 24 24 24 25 26 26 26 27 27 27 28 27 28 27 26 27 27 28 28 28
27 28 27 25 25 25 26 25 25 25 26 26 27 27 27 26 25 25 26 25 25 25 26 26 26 26 26 27 27 27 28 28 28 28 28 28 27 27 28 28 28 28 28 28
28 28 29 26 25 26 27 27 26 26 26 26 27 28 27 27 27 27 27 27 27 26 27 27 27 28 28 28 28 28 28 28 28 28 28 28 28 28 29 29 29 29 28 28
28 29 29 28 28 27 27 27 27 27 27 27 27 28 27 26 26 26 28 28 28 27 27 28 28 28 28 28 28 28 28 28 28 28 29 29 29 29 30 30 30 30 30 29
29 30 30 28 28 28 28 28 28 28 28 28 29 28 28 28 28 28 28 29 29 29 29 29 29 29 29 29 29 29 28 29 29 29 29 30 30 30 31 31 30 30 30 29
30 31 29 29 29 30 30 29 29 29 29 30 31 30 30 30 30 30 30 30 29 30 30 30 30 30 30 30 30 29 29 30 30 30 31 31 31 31 31 31 31 30 30 30
31 30 30 30 30 30 31 31 31 30 30 31 32 32 32 32 32 31 31 31 31 30 31 31 32 32 32 31 31 31 31 31 32 32 32 32 32 32 32 31 30 30 30 30
32 31 31 31 31 31 32 32 32 32 31 32 33 33 33 33 32 31 31 31 31 31 31 32 32 32 32 32 33 33 33 33 33 33 34 34 33 32 32 31 30 31 31 31
32 32 33 33 33 33 33 33 33 33 32 32 33 34 34 34 33 33 33 32 32 32 32 32 32 32 32 32 32 32 33 33 33 33 34 33 32 31 30 30 30 30 30 31
33 33 33 34 34 34 33 33 33 33 34 34 34 34 34 34 34 33 33 33 32 32 32 32 33 33 33 32 33 32 32 32 32 32 32 31 31 31 30 30 30 30 30 31
33 34 34 34 34 34 34 34 33 34 34 34 35 35 35 35 35 34 33 33 33 33 33 32 32 32 32 32 32 31 31 31 31 31 30 30 30 31 31 31 30 30 31 31
33 34 34 34 34 34 35 35 34 34 34 35 35 35 35 35 35 34 33 33 33 34 33 33 32 31 31 31 30 30 30 30 30 30 29 29 29 30 30 30 31 31 31 31
33 33 33 34 33 33 34 34 35 34 34 35 34 34 34 33 33 33 34 34 33 33 32 31 31 31 31 30 30 29 29 29 29 29 28 28 28 29 29 29 30 30 30 30
33 32 33 33 33 33 33 33 34 34 33 33 33 33 33 33 33 33 33 32 32 32 31 30 30 30 30 30 29 29 29 29 29 28 28 27 27 28 28 28 29 29 29 29
31 31 32 32 32 32 32 32 33 33 32 32 32 32 31 31 32 32 31 31 31 31 30 29 29 30 30 30 29 29 28 28 28 28 28 27 27 27 28 28 28 29 28 29
30 30 31 31 31 31 31 32 32 31 31 32 32 32 32 31 31 30 30 29 30 30 29 29 28 28 28 28 28 28 27 27 27 27 27 27 27 27 28 28 28 28 28 29
29 30 30 30 30 31 31 30 30 30 31 31 31 31 32 31 30 29 29 29 29 28 28 28 28 28 27 27 26 26 26 27 27 28 28 27 27 27 28 28 28 28 28 28
28 29 29 29 29 29 29 29 29 29 29 29 30 29 29 29 28 28 29 28 28 28 28 28 28 28 27 27 26 27 26 26 26 26 27 27 27 27 27 27 27 27 27 27
27 27 28 28 28 27 27 27 28 28 28 28 28 28 28 27 27 27 27 28 27 27 27 27 27 27 27 27 27 27 27 26 26 26 26 26 26 26 26 26 26 26 26 26
26 26 26 25 25 26 26 26 26 27 27 27 26 26 26 26 26 26 26 26 26 26 26 26 26 26 26 27 27 27 28 27 27 26 26 26 26 26 26 26 26 27 27 26
27 26 26 25 25 25 24 24 24 25 25 24 24 24 24 24 25 25 26 25 25 25 25 25 25 26 26 26 27 27 27 27 27 26 26 26 26 26 26 25 26 27 27 26
26 25 25 25 24 23 23 23 23 23 23 23 22 22 22 23 23 24 24 24 23 23 23 23 24 24 25 26 26 27 27 26 26 26 26 25 25 25 25 26 26 26 26 26
24 23 23 23 23 23 23 22 22 22 22 21 21 21 22 23 23 23 23 23 23 23 24 24 24 24 24 25 25 26 26 26 26 26 25 25 25 26 25 25 26 26 26 25
23 22 22 21 22 22 22 22 22 21 21 20 20 21 21 22 22 22 23 23 24 23 23 24 24 24 24 25 25 25 25 26 26 25 26 26 26 26 26 26 26 26 26 25
Wind_Direction
264 265 264 264 265 267 268 270 272 272 271 271 268 269 270 273 275 277 279 280 279 280 280 281 281 280 281 282 283 284 286 287 287 288 287 287 287 287 287 287 286 284 284 285
265 265 265 265 265 267 268 271 272 272 271 270 267 269 271 272 275 278 279 280 280 281 282 282 280 280 281 282 283 284 286 288 288 287 287 287 287 287 286 286 285 283 282 285
266 266 265 264 265 266 268 270 272 273 272 270 269 271 272 273 273 276 278 278 279 280 280 279 279 280 281 283 285 286 286 287 288 288 287 287 286 285 286 285 284 283 284 284
269 269 265 266 266 266 267 268 270 271 272 271 270 270 271 271 272 274 276 277 277 278 278 280 280 280 281 283 285 286 286 286 287 287 286 286 286 286 286 286 284 284 284 283
268 268 268 268 269 269 269 268 269 270 270 271 271 270 270 270 269 271 272 274 276 277 277 279 280 281 282 284 285 286 286 285 285 285 285 285 285 285 286 286 285 285 285 283
270 270 270 270 270 270 269 269 269 269 270 270 270 271 271 270 271 272 273 274 275 276 277 278 280 281 282 283 284 285 285 285 285 285 284 285 285 285 286 285 284 285 284 283
270 271 272 273 272 271 271 271 270 269 269 270 271 271 271 270 271 272 273 273 274 276 277 279 280 281 283 283 283 284 285 285 285 285 285 285 285 286 286 285 284 284 283 281
270 270 271 273 273 272 272 272 272 271 270 270 271 271 271 270 270 271 272 272 274 275 276 278 279 280 282 283 283 284 284 284 284 285 285 286 285 286 285 283 283 282 280 279
271 271 272 273 273 272 272 271 272 271 271 271 271 271 272 272 271 272 274 274 275 275 277 279 279 280 281 283 284 284 284 284 284 284 285 286 285 285 284 284 283 280 279 279
270 269 270 272 273 273 272 272 271 271 270 271 272 272 272 272 273 274 273 275 275 275 277 279 279 279 280 282 283 284 283 283 284 285 285 286 286 285 284 283 282 280 280 281
269 270 270 271 271 271 269 269 269 270 270 270 271 271 271 271 271 273 274 274 275 276 276 278 280 281 281 282 283 282 283 284 285 285 286 285 284 283 283 282 282 282 281 282
269 269 270 269 269 269 268 268 268 268 269 270 271 271 270 269 270 271 274 275 275 276 276 278 280 280 281 282 283 283 284 285 286 285 284 283 283 282 282 283 284 284 283 282
271 270 270 270 270 269 268 268 268 268 270 272 273 272 271 270 271 272 272 274 274 275 276 277 278 280 281 282 282 283 284 285 286 286 285 284 282 282 282 283 284 284 283 282
272 272 271 270 270 268 268 267 268 268 270 271 272 273 272 271 271 272 273 274 275 275 275 276 277 279 280 281 282 282 283 284 285 285 284 284 283 283 283 282 283 284 284 283
272 272 271 270 269 267 267 267 268 269 270 270 271 272 272 271 271 271 273 273 275 275 275 276 277 279 281 281 282 282 283 285 286 285 285 284 284 285 285 283 282 282 283 283
273 272 272 271 270 269 268 267 269 270 271 270 269 271 272 271 270 271 273 274 275 276 275 275 277 278 280 281 283 284 284 285 285 285 284 285 286 287 287 285 284 282 282 283
273 272 273 272 271 269 269 269 268 270 271 271 270 271 270 270 270 271 273 275 275 276 277 277 278 279 280 280 282 283 284 283 283 283 283 284 285 287 288 287 287 285 284 284
274 274 274 273 271 270 269 269 269 270 271 271 270 270 271 270 270 271 272 273 273 274 275 277 278 278 279 280 281 282 282 282 281 282 283 283 284 285 287 288 289 287 285 285
278 277 275 273 271 270 269 269 270 271 272 272 272 272 271 271 270 269 269 270 272 273 274 276 278 279 280 282 282 281 280 281 281 281 282 283 284 285 286 288 289 289 287 286
279 278 277 275 272 271 271 271 271 271 273 274 274 274 273 272 271 270 270 271 272 272 273 274 277 279 280 281 281 281 281 281 281 281 282 284 285 285 286 288 290 290 290 288
280 279 277 275 273 272 271 271 272 273 273 274 274 274 273 272 271 270 270 271 271 271 272 273 276 278 279 280 280 281 282 283 283 283 283 284 286 286 287 288 290 291 292 291
280 278 278 277 275 272 272 272 273 272 272 273 273 272 271 270 270 270 270 270 270 270 271 273 275 276 277 278 279 280 281 282 283 283 284 285 286 287 287 288 289 291 293 293
280 278 277 277 277 275 274 273 272 271 272 272 272 271 270 270 269 269 269 269 269 270 271 272 274 275 276 276 277 279 281 282 283 284 284 286 287 288 288 289 290 291 292 293
278 276 276 278 278 276 273 271 271 271 272 272 270 269 268 269 269 269 269 269 270 271 272 273 275 276 277 278 279 280 281 281 282 283 284 286 287 288 288 288 290 291 292 293
280 277 276 275 276 275 273 272 271 270 272 272 270 269 269 271 271 269 268 267 269 271 273 276 278 279 279 279 280 280 280 281 282 282 283 284 286 288 288 288 289 290 292 293
280 278 277 277 277 277 275 273 272 272 272 272 271 269 269 270 270 270 269 269 271 274 275 277 279 280 281 281 282 281 280 280 280 281 282 284 286 287 289 288 288 290 291 293
280 279 279 278 278 277 275 274 274 273 272 271 272 270 270 271 272 273 273 273 273 274 276 277 278 279 279 280 282 282 281 280 280 279 280 283 285 287 288 289 290 290 292 293
Height
5777 5778 5778 5779 5780 5780 5780 5780 5780 5781 5781 5782 5782 5781 5781 5780 5780 5780 5780 5779 5778 5778 5777 5776 5775 5774 5773 5772 5772 5771 5769 5768 5767 5765 5764 5762 5761 5759 5758 5756 5755 5753 5752 5751
5771 5772 5771 5772 5774 5774 5774 5774 5774 5774 5775 5776 5775 5775 5775 5775 5774 5774 5774 5773 5772 5772 5771 5770 5769 5768 5767 5766 5765 5764 5763 5761 5760 5759 5757 5756 5754 5752 5751 5749 5748 5747 5746 5745
5764 5765 5764 5766 5768 5768 5768 5768 5769 5768 5770 5769 5769 5769 5769 5768 5768 5768 5767 5767 5766 5766 5765 5764 5763 5762 5761 5760 5759 5758 5756 5755 5753 5752 5750 5748 5747 5745 5744 5742 5741 5740 5739 5737
5756 5758 5758 5762 5761 5761 5761 5762 5761 5761 5761 5762 5762 5762 5761 5762 5761 5761 5760 5760 5760 5759 5758 5757 5756 5755 5754 5753 5752 5750 5749 5747 5745 5744 5742 5741 5739 5738 5736 5735 5734 5732 5731 5730
5749 5749 5750 5753 5754 5754 5753 5754 5755 5754 5754 5754 5754 5754 5754 5754 5754 5754 5753 5753 5752 5752 5751 5750 5749 5748 5747 5745 5744 5742 5741 5739 5737 5736 5735 5733 5732 5730 5729 5727 5726 5724 5723 5722
5742 5742 5742 5747 5747 5746 5747 5747 5747 5746 5746 5746 5746 5747 5748 5747 5746 5746 5746 5745 5745 5744 5743 5742 5741 5740 5739 5737 5736 5735 5733 5731 5729 5728 5727 5725 5724 5722 5721 5719 5718 5716 5715 5714
5734 5734 5735 5738 5738 5738 5739 5740 5739 5738 5738 5739 5738 5739 5739 5739 5739 5738 5738 5738 5737 5736 5735 5734 5733 5732 5731 5729 5728 5726 5725 5723 5721 5720 5719 5717 5716 5714 5713 5711 5709 5708 5707 5705
5727 5726 5730 5730 5729 5730 5730 5729 5729 5730 5730 5730 5730 5730 5730 5730 5730 5730 5730 5730 5729 5728 5727 5726 5725 5724 5722 5721 5720 5718 5716 5715 5713 5712 5710 5709 5707 5706 5704 5702 5701 5699 5698 5697
5719 5721 5721 5720 5720 5720 5720 5721 5720 5721 5721 5721 5721 5721 5721 5721 5721 5721 5721 5720 5720 5719 5718 5717 5716 5715 5713 5712 5711 5709 5708 5706 5705 5703 5702 5700 5698 5697 5695 5693 5692 5691 5689 5688
5709 5710 5711 5711 5711 5711 5711 5711 5711 5711 5711 5712 5712 5712 5712 5712 5711 5711 5711 5711 5710 5710 5709 5708 5707 5705 5704 5702 5701 5700 5698 5697 5695 5694 5692 5691 5689 5687 5686 5684 5683 5682 5680 5679
5700 5701 5701 5702 5701 5701 5700 5700 5701 5701 5701 5702 5702 5702 5702 5702 5702 5702 5701 5701 5700 5700 5699 5698 5697 5695 5694 5693 5691 5690 5689 5687 5686 5684 5682 5681 5679 5678 5676 5675 5673 5672 5671 5670
5691 5692 5691 5692 5691 5691 5690 5690 5690 5691 5691 5691 5691 5692 5692 5692 5692 5692 5691 5691 5691 5690 5689 5688 5687 5686 5684 5683 5681 5680 5679 5677 5676 5674 5672 5671 5669 5668 5666 5665 5664 5662 5661 5659
5681 5681 5680 5680 5680 5680 5680 5680 5680 5680 5680 5681 5681 5681 5681 5681 5681 5681 5681 5681 5680 5679 5679 5678 5677 5675 5674 5673 5671 5670 5669 5668 5666 5664 5662 5661 5659 5658 5657 5656 5654 5652 5651 5649
5671 5670 5669 5670 5670 5670 5670 5670 5670 5670 5670 5670 5670 5670 5670 5670 5670 5670 5670 5670 5670 5669 5669 5668 5667 5666 5664 5663 5662 5660 5659 5658 5656 5655 5653 5651 5650 5649 5647 5646 5645 5643 5641 5639
5660 5659 5659 5659 5659 5659 5659 5659 5660 5660 5660 5660 5659 5659 5659 5659 5659 5659 5659 5659 5659 5659 5658 5657 5657 5656 5654 5653 5652 5651 5650 5648 5647 5645 5643 5642 5641 5639 5638 5636 5635 5633 5631 5629
5649 5648 5648 5648 5648 5648 5648 5649 5649 5649 5649 5649 5648 5648 5648 5648 5648 5649 5649 5648 5648 5648 5647 5647 5646 5646 5645 5644 5643 5641 5640 5638 5637 5636 5634 5633 5631 5630 5628 5626 5625 5623 5621 5620
5638 5637 5637 5637 5637 5637 5637 5638 5638 5638 5638 5638 5638 5638 5638 5638 5638 5638 5638 5638 5638 5638 5637 5637 5637 5636 5635 5634 5633 5632 5630 5629 5627 5626 5625 5624 5623 5621 5619 5617 5616 5614 5612 5610
5627 5627 5626 5626 5626 5626 5626 5627 5627 5627 5627 5627 5627 5627 5627 5627 5628 5628 5628 5628 5627 5628 5628 5627 5627 5626 5625 5625 5623 5622 5621 5620 5619 5618 5616 5615 5614 5612 5611 5609 5607 5604 5603 5601
5617 5616 5616 5616 5615 5615 5616 5616 5617 5617 5617 5616 5617 5617 5617 5617 5617 5617 5617 5618 5618 5618 5618 5618 5617 5616 5615 5615 5614 5613 5612 5611 5610 5609 5608 5606 5605 5603 5602 5600 5598 5595 5593 5591
5607 5607 5606 5605 5605 5605 5606 5606 5606 5607 5607 5606 5606 5606 5607 5607 5607 5607 5608 5608 5608 5608 5608 5608 5607 5607 5606 5605 5604 5603 5603 5602 5601 5600 5599 5597 5596 5594 5593 5591 5589 5587 5584 5582
5598 5597 5596 5596 5596 5596 5596 5596 5596 5597 5597 5596 5597 5597 5597 5597 5597 5598 5598 5598 5599 5598 5598 5598 5598 5597 5596 5596 5595 5594 5594 5593 5592 5591 5590 5588 5587 5586 5584 5582 5580 5578 5576 5573
5590 5589 5588 5587 5587 5587 5587 5586 5587 5587 5587 5587 5587 5587 5587 5588 5588 5588 5588 5589 5589 5589 5588 5588 5588 5588 5587 5586 5586 5585 5585 5584 5583 5582 5581 5580 5578 5577 5575 5573 5571 5569 5567 5565
5581 5580 5579 5578 5578 5578 5578 5577 5577 5578 5578 5578 5577 5578 5578 5579 5579 5579 5580 5580 5579 5579 5579 5579 5579 5578 5578 5577 5576 5576 5576 5575 5574 5573 5572 5571 5570 5568 5566 5565 5563 5561 5558 5556
5572 5572 5571 5570 5570 5569 5569 5569 5569 5569 5569 5569 5568 5569 5569 5570 5570 5570 5570 5571 5570 5570 5570 5570 5570 5569 5569 5568 5567 5567 5566 5566 5565 5564 5563 5562 5561 5559 5558 5556 5554 5552 5550 5547
5564 5563 5563 5562 5562 5561 5561 5561 5561 5561 5560 5560 5560 5561 5561 5562 5562 5562 5562 5562 5562 5562 5562 5561 5561 5560 5560 5559 5559 5558 5557 5557 5556 5555 5554 5553 5552 5550 5549 5547 5545 5543 5541 5539
5555 5555 5555 5555 5554 5554 5554 5554 5554 5553 5553 5553 5553 5553 5554 5554 5554 5554 5554 5554 5554 5554 5553 5553 5553 5552 5552 5551 5550 5549 5549 5548 5547 5546 5545 5544 5543 5541 5540 5538 5536 5534 5533 5530
5548 5548 5548 5548 5547 5547 5547 5546 5546 5546 5546 5546 5546 5546 5546 5546 5546 5546 5546 5546 5546 5545 5545 5545 5544 5544 5543 5542 5542 5541 5540 5539 5538 5537 5536 5535 5534 5532 5531 5529 5527 5526 5524 5522